Location: Owatonna
(44.0840°N, 93.2260°W)
Time: 03:21:39
(UTC-05:00)

Daily predictions for brighter satellites

Satellite Brightness Start Highest point End
(mag) Time Altitude Azimuth Time Altitude Azimuth Time Altitude Azimuth
Cosmos 1805 3.4 00:02:31 10° NNW 00:06:19 65° W 00:06:19 65° W
Cosmos 1842 3.3 00:06:40 73° WNW 00:06:40 73° WNW 00:10:31 10° N
Cosmos 2058 Rocket 3.2 00:03:55 10° NNW 00:08:25 66° W 00:08:50 62° SW
Cosmos 1470 3.5 00:07:31 10° N 00:10:54 42° ENE 00:10:54 42° ENE
Cosmos 1818 4.0 00:13:59 44° ESE 00:13:59 44° ESE 00:18:56 10° NE
Terra 3.5 00:12:52 20° WSW 00:14:10 23° W 00:17:56 10° NW
Iridium 4 Rocket 3.7 00:12:59 55° SSE 00:14:18 81° E 00:20:14 10° N
CZ-4C R/B 4.1 00:20:13 48° E 00:20:31 49° ENE 00:24:49 10° N
Cosmos 2333 Rocket 2.9 00:15:15 10° NW 00:20:34 41° WSW 00:21:38 37° SW
COSMOS 2428 4.1 00:18:53 10° NW 00:23:20 24° WSW 00:24:36 22° WSW
ALOS 2 2.8 00:23:42 58° E 00:23:52 59° ENE 00:28:11 10° N
CZ-2C R/B 4.4 00:22:23 25° WSW 00:24:00 30° W 00:28:52 10° NNW
DELTA 2 DEB (DPAF) 4.2 00:23:52 63° E 00:24:06 64° ENE 00:28:31 10° N
Abrixas rocket 3.8 00:21:11 10° WNW 00:23:33 34° NNW 00:23:33 34° NNW
SL-16 R/B 2.7 00:19:29 10° NNW 00:25:03 53° ENE 00:26:44 40° ESE
ISS -1.5 00:23:38 10° NW 00:26:25 24° NNE 00:27:41 19° NE
Cosmos 1953 2.5 00:24:11 10° N 00:27:47 70° NNE 00:27:47 70° NNE
NOSS 0 Rocket 4.4 00:23:32 10° NW 00:29:29 47° WSW 00:30:46 41° SW
SL-19 R/B 4.4 00:26:44 10° NNE 00:32:56 86° WNW 00:34:35 51° SSW
Cosmos 1980 4.0 00:29:05 10° NW 00:34:34 52° WSW 00:35:20 48° SW
Cosmos 1655 Rocket 4.4 00:29:56 10° NNW 00:36:06 53° W 00:38:00 40° SW
Cosmos 1707 3.4 00:37:14 48° NE 00:37:14 48° NE 00:40:23 10° NNE
Cosmos 1626 Rocket 3.5 00:38:06 77° W 00:38:09 77° W 00:42:37 10° N
Cosmos 1812 Rocket 3.5 00:34:29 10° N 00:38:43 76° NE 00:38:43 76° NE
Cosmos 1602 Rocket 3.5 00:40:48 81° WNW 00:40:48 81° WNW 00:45:10 10° N
Cosmos 2297 Rocket 2.2 00:41:29 50° SW 00:42:59 75° WNW 00:48:41 10° NNE
CZ-4 R/B 4.3 00:39:40 10° N 00:44:36 59° WNW 00:45:35 49° WSW
ADEOS Rocket 2.7 00:40:33 10° NNE 00:46:02 64° ESE 00:46:45 58° SE
Cosmos 2227 Rocket 2.5 00:44:40 42° SW 00:46:29 64° WNW 00:52:09 10° NNE
Cosmos 923 Rocket 3.8 00:48:09 71° S 00:48:44 86° ESE 00:54:01 10° NNE
Cosmos 1680 Rocket 3.4 00:49:28 66° SE 00:49:44 67° ESE 00:54:55 10° NNE
Cosmos 2237 Rocket 2.8 00:47:00 10° NW 00:52:18 41° WSW 00:52:51 40° WSW
Cosmos 2112 Rocket 4.0 00:52:41 61° ESE 00:52:52 61° ESE 00:57:59 10° NNE
Cosmos 1758 Rocket 4.4 00:53:12 40° E 00:53:12 40° E 00:57:11 10° NNE
Cosmos 1378 4.0 00:57:27 46° NW 00:57:27 46° NW 01:00:34 10° N
CZ-4B R/B 3.4 00:54:47 10° NNE 00:59:54 87° WNW 01:00:30 70° SSW
Cosmos 2082 3.9 00:58:39 46° SW 01:00:16 66° WNW 01:06:00 10° NNE
ERBS 4.3 00:58:41 10° NW 01:00:13 25° NW 01:00:13 25° NW
H-2A R/B 2.2 01:04:03 67° WNW 01:04:03 67° WNW 01:08:01 10° NNW
Mayak -0.9 01:00:05 10° N 01:04:15 56° WNW 01:04:15 56° WNW
USA 229 DEB 3.7 01:13:41 52° SSE 01:14:58 60° ESE 01:21:45 10° NE
USA 229 3.7 01:13:49 51° SSE 01:15:04 60° ESE 01:21:51 10° NE
Cosmos 2266 Rocket 4.5 01:10:00 10° NNW 01:16:06 50° W 01:17:36 42° SW
In-Cosmos 22 4.2 01:15:45 53° ESE 01:16:18 56° E 01:21:33 10° NNE
Cosmos 1553 Rocket 4.3 01:21:26 44° SE 01:22:55 54° E 01:28:54 10° NNE
Cosmos 1674 4.2 01:26:46 28° ENE 01:26:46 28° ENE 01:29:25 10° NNE
Cosmos 2292 Rocket 4.2 01:23:40 10° N 01:27:40 51° E 01:28:08 48° ESE
Cosmos 1400 Rocket 3.2 01:29:35 62° NW 01:29:35 62° NW 01:33:23 10° N
Cosmos 1825 Rocket 3.7 01:31:56 65° WNW 01:31:56 65° WNW 01:36:18 10° N
COSMOS 2455 4.1 01:33:57 19° WSW 01:37:40 36° NW 01:43:13 10° NNE
PSLV R/B 4.3 01:34:35 10° NNE 01:38:45 42° E 01:38:45 42° E
MOS 1 Rocket 4.0 01:35:07 10° NNE 01:40:28 53° E 01:41:21 48° SE
Cosmos 1238 Rocket 3.4 01:44:18 55° W 01:44:18 55° W 01:48:16 10° N
Resurs 1-4 Rocket 4.5 01:44:32 10° ENE 01:46:12 11° E 01:47:52 10° ESE
DELTA 2 R/B (1) 4.1 01:55:45 41° SE 01:55:45 41° SE 01:59:38 10° ESE
Cosmos 1417 Rocket 4.5 01:54:54 51° SSW 01:56:37 78° W 02:03:01 10° N
Meteor 1-24 Rocket 3.8 01:57:40 54° SW 01:58:55 72° WNW 02:04:51 10° N
ISS -1.0 01:59:58 10° WNW 02:00:17 12° WNW 02:00:17 12° WNW
Cosmos 1315 Rocket 3.2 02:04:05 53° NW 02:04:05 53° NW 02:07:39 10° N
Meteor 2-10 4.2 02:01:27 10° N 02:06:29 64° ENE 02:07:48 46° SE
KORONAS-FOTON 4.0 02:06:56 65° NE 02:06:56 65° NE 02:10:23 10° NNE
SL-16 R/B 4.1 02:01:21 10° ESE 02:06:41 31° ENE 02:12:01 10° N
Cosmos 1908 3.5 02:03:38 10° NNW 02:06:56 62° NW 02:06:56 62° NW
Cosmos 2263 Rocket 2.6 02:06:21 43° SE 02:07:32 50° ESE 02:13:01 10° NE
Cosmos 1943 3.4 02:02:01 10° NNW 02:07:43 68° ENE 02:10:17 33° SE
Cosmos 1842 Rocket 3.7 02:03:37 10° N 02:07:58 63° E 02:08:26 58° ESE
SL-16 R/B 3.5 02:04:20 10° NW 02:08:36 24° W 02:08:36 24° W
Cosmos 1745 Rocket 4.0 02:03:45 10° N 02:10:09 81° W 02:12:07 47° S
GEOS 3 Rocket 4.0 02:07:44 10° NE 02:12:53 47° ESE 02:13:41 44° SSE
Cosmos 1726 2.3 02:11:36 10° N 02:14:50 67° N 02:14:50 67° N
Cosmos 1300 3.7 02:11:52 10° N 02:15:29 39° ENE 02:15:57 37° E
Cosmos 1437 4.3 02:13:24 10° NNW 02:15:17 32° NNW 02:15:17 32° NNW
Cosmos 1346 Rocket 3.3 02:17:30 10° NNW 02:20:44 48° WNW 02:20:44 48° WNW
CZ-4C R/B 3.9 02:22:57 41° NW 02:22:57 41° NW 02:25:19 10° NNW
Cosmos 1452 Rocket 3.4 02:17:28 10° NNW 02:22:48 87° ENE 02:24:23 47° SSE
Cosmos 158 Rocket 4.0 02:22:59 53° S 02:24:14 76° ESE 02:29:38 10° NNE
Cosmos 2056 Rocket 4.2 02:20:12 10° NW 02:24:45 35° W 02:24:45 35° W
H-2A R/B 4.4 02:21:51 10° NE 02:25:22 22° E 02:26:47 19° ESE
Cosmos-2242 4.2 02:22:18 10° NNW 02:25:42 29° W 02:25:42 29° W
S3M 4.2 02:25:53 41° SW 02:27:48 58° WNW 02:33:58 10° N
Landsat 5 3.2 02:35:46 72° SW 02:35:59 75° WSW 02:40:01 10° NNW
Cosmos 1603 4.2 02:35:23 10° NW 02:40:38 40° WSW 02:41:15 39° WSW
NOSS 3-1 (C) 3.6 02:43:35 34° WSW 02:46:08 63° NW 02:52:38 10° NNE
Okean 3 Rocket 4.3 02:44:47 33° SE 02:46:14 46° E 02:50:30 10° NNE
Cosmos 1709 Rocket 4.0 02:40:38 10° N 02:47:03 83° W 02:50:00 34° S
Cosmos 1607 4.5 02:41:43 10° NNW 02:48:06 61° NE 02:54:21 10° SE
CZ-4B R/B 1.8 02:49:22 51° WNW 02:49:22 51° WNW 02:52:16 10° NNW
SL-24 R/B - RUBIN 2 4.2 02:47:47 41° SSE 02:49:10 54° ESE 02:53:54 10° NE
SL-14 R/B 3.0 02:50:47 71° SW 02:51:06 78° W 02:54:58 10° N
Cosmos 1420 Rocket 4.0 02:46:05 10° NNW 02:51:14 62° WSW 02:52:36 45° SSW
SeaSat 1 3.4 02:52:59 10° SE 02:57:42 48° NE 03:02:27 10° NNW
Cosmos 1626 2.4 02:57:05 50° SE 02:57:44 59° E 03:01:25 10° NNE
Cosmos 2285 Rocket 4.0 02:56:20 36° SSW 02:59:10 88° WNW 03:05:34 10° NNE
Cosmos 1076 Rocket 3.6 02:59:25 45° S 03:00:40 74° E 03:05:00 10° NNE
UNK 4.0 02:59:24 26° SSE 03:01:58 68° ENE 03:06:38 10° N
CBERS-1 4.1 02:59:07 10° NNE 03:04:15 71° ESE 03:06:29 34° S
Cosmos 1328 3.9 03:03:38 47° SSE 03:04:39 71° E 03:08:38 10° NNE
Cosmos 1689 Rocket 3.4 03:06:41 32° WNW 03:06:41 32° WNW 03:08:52 10° NNW
NOSS 3-1 (A) 3.6 03:04:05 31° WSW 03:06:57 65° NW 03:13:29 10° NNE
CZ-2D R/B 2.4 03:03:16 10° NNE 03:08:26 59° E 03:11:07 28° S
NOSS 2-3 (C) 4.2 03:07:51 35° S 03:09:26 52° ESE 03:14:34 10° NE
SL-08 R/B 3.4 03:10:45 26° SSE 03:13:33 88° ENE 03:18:29 10° NNW
Cosmos 2221 2.9 03:09:25 10° NNW 03:13:40 48° W 03:14:33 41° SW
USA 267 3.8 03:07:30 10° ENE 03:13:45 46° SE 03:17:05 26° S
Cosmos 1340 3.6 03:10:39 10° NNW 03:13:56 32° W 03:13:56 32° W
IRS-1D 4.1 03:09:06 10° NNE 03:14:22 56° E 03:17:28 24° S
Genesis I 3.3 03:13:50 47° WSW 03:14:49 71° NW 03:18:52 10° NNE
Cosmos 1110 Rocket 4.3 03:10:26 10° NNW 03:15:38 65° ENE 03:20:46 10° SSE
ARIANE 5 R/B 3.3 03:13:34 10° NNE 03:18:26 44° E 03:21:43 19° SSE
Cosmos 494 Rocket 4.4 03:19:37 26° S 03:22:23 56° ESE 03:27:30 10° NNE
H-II Stage 2 4.3 03:24:03 19° S 03:25:19 20° SSE 03:34:03 10° ESE
Resurs 1-4 Rocket 2.1 03:21:25 10° NNE 03:26:46 88° ESE 03:29:44 27° SSW
Meteor 2-19 Rocket 4.5 03:22:10 10° NNW 03:28:08 61° W 03:31:43 25° SSW
Cosmos 1844 Rocket 3.2 03:29:01 22° S 03:32:33 53° ESE 03:38:05 10° NE
OAO 2 Rocket 4.2 03:32:58 27° S 03:33:32 28° S 03:37:42 10° ESE
Aureole 1 Rocket 4.0 03:33:17 20° WNW 03:33:42 20° WNW 03:36:02 10° N
IRS-P3 4.2 03:29:25 10° N 03:34:42 64° WNW 03:37:34 27° SW
PSLV R/B 3.9 03:33:26 21° SSE 03:36:14 89° ENE 03:40:28 10° NNW
NPP 3.9 03:32:21 10° N 03:37:38 55° WNW 03:40:33 26° SW
Cosmos 1328 Rocket 3.9 03:35:41 10° N 03:39:59 63° E 03:44:01 11° SSE
DELTA 2 R/B (1) 4.0 03:36:33 18° WSW 03:40:10 39° SSW 03:45:20 10° SE
MOZ.5/SAFIR/RUBIN 5/SL-8 3.7 03:37:41 18° S 03:41:14 79° WSW 03:46:02 10° NNW
Cosmos 2278 Rocket 4.2 03:39:08 10° SSE 03:43:19 22° E 03:47:31 10° NE
Cosmos 1703 3.2 03:42:47 31° SSW 03:44:37 75° W 03:48:35 10° N
ADEOS II 3.6 03:41:45 10° NNE 03:46:25 31° E 03:51:02 10° SSE
Cosmos 1766 Rocket 3.5 03:45:12 28° SSW 03:47:24 67° W 03:51:47 10° N
Cosmos 921 Rocket 3.3 03:43:34 10° NNW 03:47:41 47° WSW 03:49:53 25° SSW
USA 234 4.4 03:42:04 10° E 03:48:14 47° NNE 03:54:27 10° NW
Cosmos 1844 4.2 03:44:12 18° S 03:48:18 55° ESE 03:53:51 10° NNE
SL-16 R/B 2.8 03:45:56 20° SSW 03:50:04 48° W 03:56:03 10° NNW
Cosmos 2263 Rocket 3.5 03:48:02 15° WSW 03:51:43 28° NW 03:56:36 10° N
Cosmos 2228 Rocket 3.8 03:47:15 10° N 03:51:48 57° E 03:56:16 10° SSE
UNKNOWN OBJECT B 3.5 03:51:57 10° NNE 03:55:35 48° E 03:58:39 14° S
Cosmos 1331 Rocket 3.9 03:51:35 10° NNW 03:56:42 64° WSW 04:01:47 10° S
Meteor 1-11 4.4 03:56:32 21° SSW 04:00:17 60° WNW 04:05:54 10° N
H-2A R/B 3.4 03:56:51 10° N 04:00:59 37° WNW 04:03:22 21° WSW
NOSS 2-3 (D) 4.1 03:58:00 22° SW 04:00:59 65° NW 04:06:27 10° NNE
Cosmos 1455 2.4 03:57:34 10° NNW 04:01:14 49° W 04:03:22 22° SSW
Cosmos 1302 Rocket 4.1 03:56:21 10° NNW 04:01:42 81° ENE 04:06:59 10° SSE
Cosmos 1515 Rocket 3.6 03:58:47 10° N 04:03:08 77° E 04:07:29 10° SSE
NOSS 5 (C) 4.3 04:02:25 25° SW 04:04:26 89° ESE 04:07:34 10° NE
Cosmos 1809 Rocket 4.4 03:59:42 10° NNW 04:05:46 68° W 04:11:46 10° S
GP-B 4.2 04:04:28 10° NNE 04:08:44 44° E 04:12:59 10° SSE
Helios 1A Rocket 3.0 04:05:50 10° NNE 04:09:56 78° ESE 04:13:24 14° S
Cosmos 1869 3.7 04:07:56 10° N 04:11:52 63° E 04:15:46 10° SSE
Cosmos 2341 Rocket 4.3 04:06:33 10° N 04:12:49 72° E 04:19:05 10° SSE
Cosmos 2251 Rocket 3.6 04:08:21 15° SSW 04:12:53 82° ESE 04:18:17 10° NNE
Cosmos 2058 3.1 04:10:58 18° SSW 04:13:56 59° W 04:18:07 10° N
COSMOS 2406 3.2 04:08:10 10° NNW 04:13:59 88° WSW 04:19:46 10° SSE
Cosmos 1408 Rocket 4.1 04:11:31 19° SW 04:14:11 42° WNW 04:18:20 10° N
Cosmos 1151 Rocket 3.0 04:10:46 10° N 04:15:09 80° W 04:19:29 10° S
Geosat 4.1 04:11:46 10° NNE 04:16:47 68° WNW 04:20:50 16° SW
ADEOS 3.6 04:12:59 10° NNE 04:18:15 85° ESE 04:23:28 10° SSW
CZ-2D R/B 3.6 04:19:15 10° N 04:23:42 76° WNW 04:27:52 12° SSW
Timation 1 Rocket 4.4 04:19:50 14° SSW 04:24:57 78° WNW 04:30:57 10° NNE
SAR-Lupe-2 4.1 04:22:57 13° SSW 04:25:46 38° W 04:29:09 10° NNW
NOSS 8 (A) 4.2 04:24:37 18° SW 04:26:55 85° NW 04:30:09 10° NE
Cosmos 2082 Rocket 4.4 04:23:12 10° N 04:28:15 31° NE 04:33:16 10° ESE
Cosmos 2181 Rocket 4.3 04:23:06 10° S 04:29:30 73° E 04:35:56 10° NNE
ATLAS 2AS CENTAUR R/B 3.3 04:22:31 11° SSW 04:30:03 71° ESE 04:38:09 10° NE
Nadezhda 1 Rocket 4.5 04:29:56 12° SW 04:35:22 44° WNW 04:41:24 10° N
SeaSat 1 3.5 04:31:22 10° SSW 04:35:24 25° WSW 04:39:28 10° NW
Cosmos 2154 Rocket 4.3 04:35:03 10° NNW 04:41:03 48° W 04:47:04 10° SSW
Cosmos 1743 Rocket 4.2 04:41:28 11° SW 04:45:24 39° WNW 04:49:29 10° N
Cosmos 2151 4.0 04:44:03 11° SW 04:47:45 32° WNW 04:51:38 10° N
BREEZE-M DEB (TANK) 3.9 04:44:24 10° W 04:47:50 49° N 04:52:43 10° ENE
CZ-2D R/B 3.7 04:44:21 10° NNW 04:48:03 20° WNW 04:51:45 10° WSW
Orbus 7S? 2.7 04:49:52 11° SW 04:52:18 85° NW 04:56:07 10° NE
Cosmos 405 Rocket 3.2 04:49:36 10° NNW 04:53:14 40° W 04:56:46 10° SSW
Cosmos 1992 Rocket 4.1 04:49:34 10° NNW 04:54:49 82° ENE 05:00:01 10° SSE
Cosmos 2098 Rocket 4.2 04:49:33 10° N 04:55:42 90° NE 05:02:58 10° S
Cosmos 1933 4.4 04:52:01 10° N 04:55:58 48° ENE 04:59:51 10° SSE
USA 267 3.6 04:50:27 10° NE 04:56:53 61° NNW 05:03:18 10° WSW
ARIANE 5 R/B 3.8 04:53:12 10° N 04:57:17 25° WNW 05:01:19 10° WSW
Cosmos 1805 Rocket 3.6 04:55:22 10° S 04:59:41 82° E 05:04:03 10° N
Meteor 2-10 Rocket 4.0 05:00:23 10° NNW 05:05:05 39° W 05:09:42 10° SSW
Resurs 1-4 Rocket 4.1 05:03:04 10° NNW 05:05:51 15° WNW 05:08:39 10° W
Cosmos 2218 Rocket 4.0 05:01:32 10° N 05:07:43 80° W 05:13:50 10° S
